www.pogodaiklimat.ru

Погода и климат >> Архив погоды >> Россия >> Чукотка >> Константиновская


ПОГОДА в Константиновской

  • Прогноз погоды в Константиновской
  • Монитор погоды в Константиновской

АРХИВ ПОГОДЫ в Константиновской

Время (UTC), дата Ветер
(напр.,м/с)
 
Видим.   Явления Облачность Т
(С)
Тd
(С)
f
(%)
Тe
(С)
Тes
(С)
Комфортность P
(гПа)
Po
(гПа)
Тmin
(С)
Tmax
(С)
R
(мм)
R24
(мм)
S
(см)
12 12.06 Ю 1
{3}
50 км 3/0
[Ac cuf Ci fib]
+11.4 +7.0 74 +11 +11 1009.2 1008.2
15 12.06 Ю 1
{2}
50 км 3/0
[Ac trans Ci fib]
+8.1 +5.5 84 +7 +7 1009.1 1008.1
18 12.06 Ю 2
{3}
50 км 6/0
[Ac trans Ci fib]
+16.7 +1.1 35 +17 +18 1008.9 1007.9
21 12.06 Ю 2
{6}
50 км 3/3 600 м
[Cb cap Ci fib]
+21.5 +0.6 25 +21 +25 комфорт 1009.1 1008.1 +7.1
00 13.06 ЮЗ 4
{9}
50 км 8/6 600 м
[Cb cap Ci fib]
+23.7 -1.4 19 +22 +25 комфорт 1008.1 1007.1
03 13.06 ЮЗ 5
{10}
50 км 8/8 600 м
[Cb cap]
+24.8 -1.9 17 +23 +24 комфорт 1007.4 1006.4
06 13.06 В 3
{9}
50 км 8/8 600 м
[Cb cap]
+23.9 +3.0 26 +23 +24 комфорт 1006.5 1005.5
09 13.06 В 1
{8}
50 км 8/6 600 м
[Cb cap Ci ing]
+18.0 +7.3 50 +19 +20 1007.1 1006.1 +26.8
12 13.06 Ю 2
{3}
50 км 8/8 600 м
[Cb cap Ci fib]
+14.6 +7.8 64 +14 +14 1007.1 1006.1
15 13.06 Ю 2
{5}
4000 м ливневой дождь 10/10 600 м
[Cb cap]
+12.2 +6.5 68 +11 +11 1007.5 1006.5
18 13.06 Ю 2
{8}
50 км {ливн. осадки} 8/6 600 м
[Cb cap Ac cuf]
+14.5 +7.0 61 +14 +15 1008.1 1007.1
21 13.06 Ю 2
{5}
50 км 8/8 600 м
[Cb cap]
+21.3 +6.5 38 +22 +23 комфорт 1009.0 1008.0 +10.4 0.8
00 14.06 З 3
{7}
50 км 9/6 600 м
[Sc diur, vesp Ci fib]
+26.1 +2.1 21 +25 +28 комфорт 1009.3 1008.3
03 14.06 ЮЗ 2
{8}
50 км 8/5 600 м
[Cb cap Ci fib]
+27.4 -0.9 16 +25 +30 комфорт 1009.5 1008.5
06 14.06 С 1
{6}
50 км 8/5 600 м
[Cb cap Ci fib]
+26.8 +4.0 23 +26 +28 жарко 1009.5 1008.5
09 14.06 СВ 1
{4}
50 км 6/6 600 м
[Cb cap]
+23.5 +7.0 35 +24 +24 комфорт 1010.5 1009.5 +28.0
12 14.06 штиль 0
{4}
50 км 3/3 600 м
[Sc diur, vesp]
+12.3 +10.7 90 +12 +12 1011.6 1010.6
15 14.06 Ю 1
{2}
50 км ясно +8.7 +8.1 96 +8 +8 1012.7 1011.7
18 14.06 ЮВ 1
{2}
50 км ясно +14.9 +11.0 77 +15 +17 1013.6 1012.6
21 14.06 В 1
{2}
50 км ясно +23.5 +7.6 36 +24 +31 комфорт 1014.3 1013.3 +8.5
00 15.06 В 2
{5}
50 км 3/3 600 м
[Cu hum]
+28.2 +2.1 19 +26 +34 жарко 1014.2 1013.2
03 15.06 В 2
{6}
50 км 4/4 600 м
[Cb cap]
+29.8 +0.6 15 +27 +33 жарко 1013.3 1012.3
06 15.06 В 4
{7}
50 км 8/8 600 м
[Cb cap]
+27.0 +3.6 22 +26 +26 жарко 1012.8 1011.8
09 15.06 ЮВ 1
{7}
50 км 6/6 600 м
[Sc diur, vesp]
+19.3 +8.8 51 +21 +22 комфорт 1013.3 1012.3 +30.3
12 15.06 Ю 1
{4}
50 км 4/3 600 м
[Sc diur, vesp Ac cuf]
+16.7 +10.0 65 +18 +18 1013.9 1012.9
15 15.06 штиль 0
{3}
50 км 4/3 600 м
[Cb cap Ci ing]
+11.8 +8.5 80 +11 +11 1014.5 1013.5
18 15.06 Ю 2
{4}
50 км ясно +17.3 +9.0 58 +18 +19 1015.0 1014.0
21 15.06 ЮВ 2
{4}
50 км 1/0
[Ci fib]
+23.3 +8.2 38 +24 +30 комфорт 1015.1 1014.1 +11.5
00 16.06 Ю 3
{6}
50 км 1/1 600 м
[Cu hum]
+28.0 +2.9 20 +26 +34 жарко 1014.5 1013.5
03 16.06 ЮВ 2
{7}
50 км 4/4 600 м
[Cb cap]
+29.3 0.0 15 +27 +33 жарко 1013.7 1012.7
06 16.06 ЮВ 2
{7}
50 км 6/6 600 м
[Cb cap]
+28.8 -0.9 14 +26 +28 жарко 1013.0 1012.0
09 16.06 ЮВ 2
{5}
50 км 6/4 600 м
[Cu med, cong Ci fib]
+26.0 +1.3 20 +24 +25 комфорт 1012.9 1011.9 +29.4
12 16.06 Ю 1
{3}
50 км 6/0
[Ci fib]
+13.7 +11.1 84 +14 +14 1013.2 1012.2
15 16.06 штиль 0
{3}
50 км 8/0
[Ci fib]
+10.8 +9.8 94 +10 +10 1013.4 1012.4
18 16.06 Ю 1
{2}
50 км 8/0
[Ci fib]
+18.5 +10.5 60 +20 +22 1013.8 1012.8
21 16.06 В 1
{3}
50 км 8/0
[Ci fib]
+23.3 +10.0 43 +25 +31 комфорт 1013.9 1012.9 +10.5
00 17.06 В 1
{3}
50 км 8/0
[Ci fib]
+23.3 +10.0 43 +25 +36 комфорт 1013.9 1012.9 +10.5
03 17.06 В 2
{4}
50 км 8/8 600 м
[Cb cap Ci fib]
+27.2 +2.3 20 +26 +28 жарко 1012.8 1011.8
06 17.06 СЗ 3
{7}
50 км в посл. час гроза 9/9 600 м
[Cb cap]
+27.1 +4.1 23 +26 +26 жарко 1012.5 1011.5
09 17.06 ЮЗ 2
{8}
50 км 8/6 600 м
[Cb cap Ci fib]
+21.8 +7.3 39 +23 +23 комфорт 1013.1 1012.1 +29.7
12 17.06 СЗ 1
{3}
50 км 8/6 600 м
[Cb cap Ci fib]
+11.9 +9.5 85 +12 +12 1012.7 1011.7
15 17.06 Ю 1
{3}
50 км 4/3 600 м
[Sc diur, vesp Ci fib]
+12.6 +8.6 77 +13 +13 1013.0 1012.0
18 17.06 В 2
{2}
50 км 8/0
[Ci fib]
+16.4 +11.4 72 +17 +18 1013.2 1012.2
21 17.06 В 1
{3}
50 км 9/0
[Ci fib]
+21.9 +11.1 50 +24 +30 комфорт 1013.0 1012.0 +9.4
00 18.06 В 1
{2}
50 км 9/0
[Ci fib]
+24.3 +7.4 34 +25 +35 комфорт 1012.9 1011.9
03 18.06 СЗ 3
{6}
50 км 8/4 600 м
[Cb cap Ci ing]
+27.3 +7.3 28 +27 +31 жарко 1012.2 1011.2
06 18.06 СЗ 2
{8}
50 км 9/3 600 м
[Cb cap Ac cuf Ci ing]
+24.0 +7.7 35 +24 +26 комфорт 1012.6 1011.6
09 18.06 С 1
{8}
50 км 9/5 600 м
[Cb cap Ac cuf Ci fib]
+20.7 +11.3 55 +24 +24 комфорт 1012.8 1011.8 +28.0
09 19.06 СЗ 2
{6}
50 км 10/6 600 м
[Sc diur, vesp As op]
+15.9 +9.5 66 +16 +16 1013.4 1012.4 +20.7

 

Местоположение метеостанции Константиновская (Чукотка, Россия): широта 68.15 долгота 161.10 высота над уровнем моря 8 м.

В архиве по умолчанию представлена погода в Константиновской за последнюю неделю. Архивные данные за месяц целиком и за предыдущие месяцы, начиная с января 2011 года, Вы можете получить, выбрав интересующий диапазон дат из раскрывающегося списка и нажав кнопку "Ввод!".


*Определитесь, кто Вы:
робот инопланетянин человек

Внимание! Время в таблицах - всемирное. Для получения местного времени необходимо прибавить поправку, которая равна 12 ч.

Смотрите также архив погоды в соседних городах и на ближайших метеорологических станциях:

Погода в Анюйске (Чукотка, Россия) (28 км)
Погода в Черском (Якутия, Россия) (65 км)
Погода в Колымской (Якутия, Россия) (120 км)
Погода в Островном (Чукотка, Россия) (124 км)
Погода в Бухте Амбарчик (Чукотка, Россия) (170 км)
Погода в Билибино (Чукотка, Россия) (220 км)
Погода в Баимке (Чукотка, Россия) (224 км)
Погода в Раучуе (Чукотка, Россия) (264 км)
Погода в Андрюшкино (Якутия, Россия) (290 км)
Погода в Илирнее (Чукотка, Россия) (304 км)

Пояснения к столбцам:

Ветер - указаны скорость ветра в м/с - средняя за 10 мин, порывы в срок и между сроками (в фигурных скобках) и направление, откуда дует ветер: С - северный, СВ - северо-восточный, В - восточный, ЮВ - юго-восточный, Ю - южный, ЮЗ - юго-западный, З - западный, СЗ - северо-западный.
Видимость - горизонтальная дальность видимости в метрах или километрах. При видимости от 1 до 10 км при отсутствии осадков обычно наблюдается дымка, при ухудшении видимости до 1 км и менее - туман. В сухую погоду видимость может ухудшаться дымом, пылью или мглою.
Явления - указаны атмосферные явления, наблюдавшиеся в срок или в последний час перед сроком; фигурными скобками обозначены явления, наблюдавшиеся между сроками (за 1-3 часа до срока); квадратными скобками обозначены град или гололедные отложения с указанием их диаметра в мм.
Облачность - указаны через наклонную черту общая и нижняя облачность в баллах и высота нижней границы облаков в метрах; квадратными скобками обозначены формы облаков: Ci - перистые, Cs - перисто-слоистые, Cc - перисто-кучевые, Ac - высококучевые, As - высокослоистые, Sc - слоисто-кучевые, Ns - слоисто-дождевые, Cu - кучевые, Cb - кучево-дождевые. Подробнее классификацию облаков см. в Атласе облаков (PDF).
T - Температура воздуха - температура, измеренная на высоте 2 м над землей.
Td - Температура точки росы - температура, при понижении до которой содержащийся в воздухе водяной пар достигнет насыщения.
f - Относительная влажность воздуха - влажноcть воздуха, измеренная на высоте 2 м над землей.
Te - Эффективная температура - температура, которую ощущает одетый по сезону человек в тени. Характеристика душности погоды. При расчете учитывается влияние влажности воздуха и скорости ветра на теплоощущения человека.
Tes - Эффективная температура на солнце - температура, которую ощущает человек, с поправкой на солнечный нагрев. Характеристика знойности погоды. Зависит от высоты солнца над горизонтом, облачности и скорости ветра. Ночью, в пасмурную погоду, а также при ветре 12 м/с и более поправка равна нулю.
P - Атмосферное давление - приведенное к уровню моря атмосферное давление.
Po - Атмосферное давление - измеренное на уровне метеостанции атмосферное давление.
Tmin - Минимальная температура - минимум температуры воздуха на высоте 2 м над землей.
Tmax - Максимальная температура - максимум температуры воздуха на высоте 2 м над землей.
R - Количество осадков - Количество выпавших осадков за период времени, мм. При наведении курсора мыши на число - период времени, за который выпало указанное количество осадков.
R24 - Количество осадков - Количество выпавших осадков за 24 часа, мм.
S - Снежный покров - Высота снежного покрова, см. При наведении курсора мыши на число - состояние снежного покрова и степень покрытия местности в баллах.